User: anonymous   Login
Location: Davayat
(45.9471°N, 3.1105°E)
Time: 03:20:18
(UTC+00:00)
Language:

Cosmos 1538 Rocket - Orbit

View from above orbital plane
View from above orbital plane
View from above satellite
View from above satellite

Ground track
Ground track

The orbit data is extracted from the following two-line orbital elements,

1 14760U 84019B   21058.52543349  .00000041  00000-0  23002-4 0  9997
2 14760  74.0444 162.7281 0027012  48.8364 311.5113 14.35896009937329
Epoch (UTC): 27 February 2021 12:36:37
Eccentricity: 0.0027012
inclination: 74.0444°
perigee height: 753 km
apogee height: 791 km
right ascension of ascending node: 162.7281°
argument of perigee: 48.8364°
revolutions per day: 14.35896009
mean anomaly at epoch: 311.5113°
orbit number at epoch: 93732

The dashed part of the orbit path shows where the satellite is in the earth's shadow,  

DLR